Location: Spruce Knob
(38.6995°N, 79.5330°W)
Time: 22:41:24
(UTC-04:00)

A-11 Canister half - Pass Details

Date: 02 February 2022
Orbit: 1513 x 1686 km, 47.2° (Epoch: 24 May)

Event Time Altitude Azimuth Distance (km) Brightness Sun altitude
Rises 12:59:51 0° 204° (SSW) 4,870 12.6 34.3°
Reaches altitude 10° 13:03:18 10° 197° (SSW) 3,863 12.5 34.2°
Maximum altitude 13:12:05 39° 133° (SE) 2,253 10.7 33.8°
Drops below altitude 10° 13:20:36 10° 69° (ENE) 3,752 10.8 33.5°
Sets 13:23:53 0° 62° (ENE) 4,717 11.2 33.3°
